Location: Fort Wayne
(41.1310°N, 85.1290°W)
Time: 20:04:26
(UTC-04:00)

Cosmos 1000 Rocket - Visible Passes

Search period start: 23 June 2017 00:00
Search period end: 03 July 2017 00:00
Orbit: 954 x 992 km, 82.9° (Epoch: 22 June)

Date Brightness Start Highest point End Pass type
(mag) Time Alt. Az. Time Alt. Az. Time Alt. Az.
23 Jun 6.6 00:22:08 10° WSW 00:26:47 21° WNW 00:31:26 10° NNW visible
23 Jun 4.6 22:59:19 10° S 23:05:38 78° W 23:11:57 10° N visible
24 Jun 7.1 00:49:57 10° W 00:52:01 12° WNW 00:54:04 10° NW visible
24 Jun 5.5 23:24:26 10° SSW 23:30:25 44° WNW 23:36:25 10° N visible
25 Jun 4.8 22:03:47 10° SSE 22:09:48 49° E 22:15:49 10° NNE visible
25 Jun 6.4 23:50:17 10° SW 23:55:24 25° WNW 00:00:30 10° NNW visible
26 Jun 4.5 22:28:04 10° S 22:34:22 87° E 22:40:41 10° N visible
27 Jun 7.0 00:17:18 10° W 00:20:33 14° WNW 00:23:48 10° NNW visible
27 Jun 5.2 22:52:59 10° SSW 22:59:06 54° W 23:05:15 10° N visible
28 Jun 6.2 23:18:34 10° SW 23:24:00 30° WNW 23:29:29 10° NNW visible
29 Jun 4.5 21:56:53 10° S 22:03:08 73° E 22:09:23 10° NNE visible
29 Jun 7.0 23:45:04 10° WSW 23:49:06 17° WNW 23:53:08 10° NNW visible
30 Jun 5.0 22:21:35 10° SSW 22:27:49 65° W 22:34:03 10° N visible
01 Jul 6.0 22:46:55 10° SW 22:52:39 37° WNW 22:58:23 10° N visible
02 Jul 6.9 23:13:04 10° WSW 23:17:41 21° WNW 23:22:17 10° NNW visible
